Printer-friendly version

IAU Minor Planet Center

Minor Planet Center

MPEC 2007-F50 : 2007 FL3

The following Minor Planet Electronic Circular may be linked-to from your own Web pages, but must not otherwise be redistributed electronically.


Read MPEC 2007-F49 Read MPEC 2007-F51


M.P.E.C. 2007-F50                                Issued 2007 Mar. 21, 12:02 UT

     The Minor Planet Electronic Circulars contain information on unusual
         minor planets and routine data on comets.  They are published
   on behalf of Commission 20 of the International Astronomical Union by the
          Minor Planet Center, Smithsonian Astrophysical Observatory,
                          Cambridge, MA 02138, U.S.A.

             Prepared using the Tamkin Foundation Computer Network

                              MPC@CFA.HARVARD.EDU
          URL http://cfa-www.harvard.edu/iau/mpc.html  ISSN 1523-6714

                                   2007 FL3

Observations:
     K07F03L* C2007 03 19.40529 15 50 52.69 +46 34 41.9          20.4 V EF050703
     K07F03L  C2007 03 19.41127 15 50 53.12 +46 34 54.9          19.9 V EF050703
     K07F03L  C2007 03 19.41734 15 50 53.44 +46 35 09.4          19.8 V EF050703
     K07F03L  C2007 03 19.42340 15 50 53.98 +46 35 22.5          19.8 V EF050703
     K07F03L  C2007 03 19.45157 15 50 56.18 +46 36 26.3          19.5 V EF050703
     K07F03L  C2007 03 19.45847 15 50 56.65 +46 36 41.3          19.6 V EF050703
     K07F03L  C2007 03 19.46543 15 50 57.19 +46 36 57.2          19.6 V EF050703
     K07F03L  C2007 03 19.47230 15 50 57.69 +46 37 13.4          19.2 V EF050703
     K07F03L 5C2007 03 19.49583 15 50 59.52 +46 38 05.4          20.2 R EF050673
     K07F03L 5C2007 03 19.50012 15 50 59.87 +46 38 15.1                 EF050673
     K07F03L 5C2007 03 19.50625 15 51 00.31 +46 38 28.2                 EF050673
     K07F03L 5C2007 03 19.51007 15 51 00.63 +46 38 37.1                 EF050673
     K07F03L  C2007 03 20.23911 15 51 58.55 +47 05 37.3          19.9 R EF050651
     K07F03L  C2007 03 20.24058 15 51 58.68 +47 05 40.4          20.2 R EF050651
     K07F03L  C2007 03 20.24202 15 51 58.76 +47 05 44.4          19.9 R EF050651
     K07F03L  C2007 03 20.38827 15 52 09.80 +47 11 12.3          20.0 V EF050G96
     K07F03L  C2007 03 20.39038 15 52 09.98 +47 11 17.1          19.8 V EF050G96
     K07F03L  C2007 03 20.39249 15 52 10.12 +47 11 21.6          20.0 V EF050G96
     K07F03L  C2007 03 20.39462 15 52 10.27 +47 11 26.4          20.1 V EF050G96
     K07F03L  C2007 03 21.17290 15 53 09.75 +47 40 06.1                 EF050J95
     K07F03L  C2007 03 21.17524 15 53 09.92 +47 40 11.2                 EF050J95
     K07F03L  C2007 03 21.17758 15 53 09.98 +47 40 17.1          20.3 R EF050J95
     K07F03L  C2007 03 21.25266 15 53 16.40 +47 43 00.6          19.6 V EF050G96
     K07F03L  C2007 03 21.25442 15 53 16.54 +47 43 04.6          19.8 V EF050G96
     K07F03L  C2007 03 21.25632 15 53 16.72 +47 43 08.8          20.0 V EF050G96
     K07F03L  C2007 03 21.25708 15 53 16.76 +47 43 10.4          20.1 V EF050G96
     K07F03L  C2007 03 21.40019 15 53 26.99 +47 48 28.9          19.8 R EF050850
     K07F03L  C2007 03 21.43020 15 53 29.12 +47 49 34.8          20.0 R EF050850

Observer details:
651 Grasslands Observatory, Tucson.  Observer J. E. McGaha.  0.62-m f/5.1
    Newtonian reflector + CCD.
673 Table Mountain Observatory, Wrightwood.  Observer J. Young.  0.61-m f/16
    Cassegrain + CCD.
703 Catalina Sky Survey.  Observer R. A. Kowalski.  Measurers E. C. Beshore,
    E. J. Christensen, G. J. Garradd, A. R. Gibbs, A. D. Grauer, R. E. Hill,
    R. A. Kowalski, S. M. Larson, R. H. McNaught.  0.68-m Schmidt + CCD.
850 Cordell-Lorenz Observatory, Sewanee.  Observer D. T. Durig.  0.30-m f/9.7
    Schmidt-Cassegrain + 1Kx1K CCD.
G96 Mt. Lemmon Survey.  Observer A. R. Gibbs.  Measurers E. C. Beshore,
    E. J. Christensen, G. J. Garradd, A. R. Gibbs, A. D. Grauer, R. E. Hill,
    R. A. Kowalski, S. M. Larson, R. H. McNaught.  1.5-m reflector + CCD.
J95 Great Shefford.  Observer P. Birtwhistle.  0.40-m f/6.0 Schmidt-Cassegrain
    + CCD.

Orbital elements:
2007 FL3
Epoch 2007 Mar. 1.0 TT = JDT 2454160.5                  MPC
M 286.89974              (2000.0)            P               Q
n   0.38948242     Peri.  134.18056     +0.42439626     +0.83887097
a   1.8569953      Node   153.81383     -0.87750909     +0.28819783
e   0.1699044      Incl.   50.57090     +0.22330607     -0.46177646
P   2.53           H   17.1           G   0.15
From 28 observations 2007 Mar. 19-21.  E-assumed.

Ephemeris:
2007 FL3                 a,e,i = 1.86, 0.17, 51                  q = 1.5415
Date    TT    R. A. (2000) Decl.     Delta      r     Elong.  Phase     V
2007 03 21    15 52.94   +47 33.7    1.156    1.774   110.8    31.7    20.0
2007 03 31    16 03.96   +53 22.7    1.161    1.752   108.2    32.8    20.0
2007 04 10    16 10.89   +58 24.7    1.179    1.731   104.8    34.0    20.1
2007 04 20    16 12.69   +62 30.0    1.203    1.710   101.2    35.2    20.1
2007 04 30    16 08.85   +65 32.6    1.229    1.690    97.7    36.2    20.2
2007 05 10    15 59.88   +67 30.3    1.254    1.670    94.5    37.1    20.2
2007 05 20    15 47.63   +68 22.1    1.274    1.651    91.8    37.8    20.2
2007 05 30    15 35.28   +68 09.6    1.286    1.634    89.7    38.3    20.2
2007 06 09    15 25.81   +66 57.8    1.291    1.617    88.2    38.9    20.2
2007 06 19    15 21.02   +64 51.7    1.287    1.602    87.3    39.3    20.2
2007 06 29    15 21.50   +61 55.7    1.276    1.588    86.9    39.7    20.2
2007 07 09    15 26.77   +58 13.0    1.258    1.576    87.0    40.1    20.2
2007 07 19    15 36.10   +53 44.0    1.237    1.565    87.4    40.4    20.1
2007 07 29    15 48.75   +48 29.3    1.215    1.556    88.0    40.7    20.1
2007 08 08    16 04.03   +42 30.7    1.197    1.550    88.6    40.9    20.0
2007 08 18    16 21.43   +35 52.5    1.186    1.545    88.9    40.9    20.0
2007 08 28    16 40.57   +28 44.7    1.188    1.542    88.7    40.9    20.0
2007 09 07    17 01.11   +21 22.1    1.206    1.542    87.8    40.8    20.0
2007 09 17    17 22.84   +14 02.8    1.242    1.543    86.0    40.5    20.1
2007 09 27    17 45.56   +07 05.9    1.297    1.547    83.5    40.1    20.2
2007 10 07    18 09.09   +00 46.0    1.370    1.552    80.2    39.4    20.3
2007 10 17    18 33.30   -04 47.6    1.458    1.560    76.4    38.4    20.4
2007 10 27    18 58.05   -09 31.1    1.558    1.570    72.1    37.1    20.5
2007 11 06    19 23.20   -13 25.3    1.665    1.581    67.6    35.4    20.7
2007 11 16    19 48.64   -16 33.3    1.778    1.594    63.0    33.6    20.8

Timothy B. Spahr             (C) Copyright 2007 MPC           M.P.E.C. 2007-F50

Read MPEC 2007-F49 Read MPEC 2007-F51


Our Web policy. Index to the CBAT/MPC/ICQ pages.


Valid HTML 4.01!